User: anonymous   Login
Location: Bowman Observatory
(41.0326°N, 73.6210°W)
Time: 15:48:54
(UTC-04:00)
Language:

Cosmos 2298 Rocket - Orbit

View from above orbital plane
View from above orbital plane
View from above satellite
View from above satellite

Ground track
Ground track

The orbit data is extracted from the following two-line orbital elements,

1 23432U 94083B   15243.57555956  .00000008  00000-0  12221-4 0  9990
2 23432 074.0312 056.8003 0004519 058.3075 001.0421 14.33401401 82360
Epoch (UTC): 31 August 2015 13:48:48
Eccentricity: 0.0004519
inclination: 74.0312°
perigee height: 777 km
apogee height: 783 km
right ascension of ascending node: 56.8003°
argument of perigee: 58.3075°
revolutions per day: 14.33401401
mean anomaly at epoch: 1.0421°
orbit number at epoch: 8236

The dashed part of the orbit path shows where the satellite is in the earth's shadow,  

DLR